Regional Weather Roundup
Issued by NWS Northern Indiana

Home | Current Version | Previous Version | Text Only | Print | Product List | Glossary On
Versions: 1 2 3 4 5 6 7 8 9 10 11 12 13 14 15 16 17 18 19 20 21 22 23 24 25 26 27 28 29 30 31 32 33 34 35 36 37 38 39 40 41 42 43 44 45 46 47 48 49 50
000
ASUS43 KIWX 270910
RWRIWX

KIWX WEATHER ROUNDUP
NATIONAL WEATHER SERVICE NORTHERN INDIANA
400 AM EST TUE JAN 27 2015

NOTE: "FAIR" INDICATES FEW OR NO CLOUDS BELOW 12,000 FEET WITH NO
SIGNIFICANT WEATHER AND/OR OBSTRUCTIONS TO VISIBILITY.

* THESE STATIONS ARE NOT UNDER NWS QUALITY CONTROL. THEY ALSO MAY NOT
  REPORT WEATHER SUCH AS PRECIPITATION OR FOG.

INZ001>027-271000-
NORTHERN INDIANA

CITY           SKY/WX    TMP DP  RH WIND       PRES   REMARKS
GARY*          CLOUDY    26  20  76 CALM      29.97R
VALPARAISO     CLOUDY    22  18  85 E7        29.96R WCI  13
MICHIGAN CITY* CLOUDY    23  14  68 CALM      29.97R
LAPORTE*       CLOUDY    25  19  77 E3        29.96S
KNOX*          CLOUDY    23   8  52 E5        29.95S WCI  17
SOUTH BEND     CLOUDY    23  14  68 E5        29.96S WCI  17
GOSHEN         CLOUDY    21  14  74 NE5       29.96R WCI  15
MONTICELLO*    CLOUDY    24  22  93 E5        29.94R WCI  18
LOGANSPORT*    CLOUDY    23  19  86 E3        29.95S
ROCHESTER*     CLOUDY    25  19  80 E5        29.96R WCI  19
WARSAW*        CLOUDY    21  14  73 CALM      29.95R
ANGOLA*        CLOUDY    18  10  73 E3        29.95R
FORT WAYNE     CLOUDY    19  13  77 CALM      29.96R
HUNTINGTON*    CLOUDY    19  10  69 CALM      29.95R
PERU/GRISSOM   CLOUDY    22  17  83 E5        29.93R WCI  16
MARION*        CLOUDY    21  15  76 CALM      29.94S

$$
INZ028>050-271000-
CENTRAL INDIANA

CITY           SKY/WX    TMP DP  RH WIND       PRES   REMARKS
LAFAYETTE      CLOUDY    26  25  96 N3        29.94R FOG
KOKOMO*        CLOUDY    23  18  80 E5        29.94S WCI  17
MUNCIE*        CLOUDY    20  14  77 SE3       29.92S
INDIANAPOLIS   LGT SNOW  24  24 100 E5        29.91S FOG     WCI  18

$$
MIZ043>046-050>051-056>058-064>065-071>073-077>080-271000-
SOUTHWEST LOWER MICHIGAN

CITY           SKY/WX    TMP DP  RH WIND       PRES   REMARKS
BATTLE CREEK   CLOUDY    20  10  65 NE6       29.97R WCI  12
BENTON HARBOR  CLOUDY    22  11  62 E6        29.97S WCI  14
COLDWATER*     CLOUDY    19  10  70 E5        29.96R WCI  12
HILLSDALE*     CLOUDY    17  11  79 CALM      29.94R
HOLLAND        CLOUDY    22  13  68 E7        30.00R WCI  13
GRAND RAPIDS   CLOUDY    18  12  77 NE8       29.99S WCI   8
KALAMAZOO      CLOUDY    20  10  65 NE5       29.97S WCI  13
STURGIS*       CLOUDY    19  10  68 CALM      29.95R
THREE RIVERS*  CLOUDY    21  12  67 CALM      29.97R

$$
OHZ001>008-015>018-024>025-271000-
NORTHWEST OHIO

CITY           SKY/WX    TMP DP  RH WIND       PRES   REMARKS
WAUSEON*       CLOUDY    16  10  79 NE5       29.97S WCI   9
DEFIANCE       CLOUDY    14   9  80 CALM      29.97S
FINDLAY        PTCLDY     9   4  80 CALM      29.94F
TOLEDO EXPRESS PTCLDY    11   7  84 CALM      29.97F
TOLEDO METCALF CLEAR      6   2  83 CALM      29.98F
LIMA           MOCLDY     8   3  80 E5        29.93S HAZE    WCI   0

$$
AND FOR LAKE MICHIGAN COASTAL AND OPEN LAKE BUOY OBSERVATIONS

STATION/POSITION TEMP    WIND        PRES    VSBY  WAVE
                 AIR SEA DIR/SP/G                  HT/PER
                 (F)     (DEG/KT/KT) (MB)    (MI)  (FT/S)
CALUMET HARBOR    26      80/  4/  5   N/A
MICHIGAN CITY     23     100/  5/  7   N/A
SAINT JOSEPH      23      60/  1/  5 1015.6R

$$
&&


USA.gov is the U.S. government's official web portal to all federal, state and local government web resources and services.